This is the latest recevied weather packets stored in our database for station/object KI6PPU. If no packets are shown the sender has not sent any weather packets the latest 10 day(s).
| Time | Temp. | Humidity | Pressure | Rain* | Wind** | Luminosity | Snow |
|---|---|---|---|---|---|---|---|
| 1777567152 | 21.67° C | 56% | 1016.5 hPa | 0 mm | - | 679 W/m² | - |
| 1777566850 | 21.11° C | 57% | 1016.8 hPa | 0 mm | - | 613 W/m² | - |
| 1777566548 | 20.56° C | 58% | 1016.7 hPa | 0 mm | - | 576 W/m² | - |
| 1777566245 | 20.56° C | 61% | 1016.7 hPa | 0 mm | - | 642 W/m² | - |
| 1777565942 | 20° C | 63% | 1016.8 hPa | 0 mm | - | 574 W/m² | - |
| 1777565637 | 20° C | 59% | 1016.8 hPa | 0 mm | - | 526 W/m² | - |
| 1777565334 | 20° C | 64% | 1016.6 hPa | 0 mm | - | 431 W/m² | - |
| 1777565030 | 19.44° C | 65% | 1016.7 hPa | 0 mm | - | 464 W/m² | - |
| 1777564725 | 20° C | 65% | 1016.8 hPa | 0 mm | - | 429 W/m² | - |
| 1777564421 | 20° C | 67% | 1016.5 hPa | 0 mm | - | 368 W/m² | - |
| 1777564117 | 20° C | 66% | 1016.6 hPa | 0 mm | - | 265 W/m² | - |
| 1777563813 | 19.44° C | 63% | 1016.7 hPa | 0 mm | - | 345 W/m² | - |
| 1777563510 | 18.89° C | 67% | 1016.7 hPa | 0 mm | - | 208 W/m² | - |
| 1777563209 | 17.78° C | 71% | 1016.8 hPa | 0 mm | - | 308 W/m² | - |
| 1777562906 | 16.67° C | 75% | 1016.7 hPa | 0 mm | - | 236 W/m² | - |
| 1777562602 | 16.67° C | 75% | 1016.9 hPa | 0 mm | - | 234 W/m² | - |
| 1777562301 | 16.67° C | 77% | 1016.8 hPa | 0 mm | - | 194 W/m² | - |
| 1777561997 | 15.56° C | 76% | 1016.9 hPa | 0 mm | - | 142 W/m² | - |
| 1777561695 | 16.11° C | 76% | 1016.9 hPa | 0 mm | - | 196 W/m² | - |
| 1777561390 | 15.56° C | 74% | 1016.7 hPa | 0 mm | - | 116 W/m² | - |
| 1777561085 | 15° C | 79% | 1016.8 hPa | 0 mm | - | 170 W/m² | - |
| 1777560781 | 13.89° C | 81% | 1016.6 hPa | 0 mm | - | 99 W/m² | - |
| 1777560478 | 13.33° C | 80% | 1016.8 hPa | 0 mm | - | 91 W/m² | - |
| 1777560176 | 12.22° C | 81% | 1016.7 hPa | 0 mm | - | 84 W/m² | - |
| 1777559873 | 13.89° C | 78% | 1016.8 hPa | 0 mm | - | 83 W/m² | - |
* Rain latest hour (hover to see other rain measurements)
** Current wind speed in m/s (hover to see current wind gust speed)